Regional Weather Roundup
Issued by NWS Goodland, KS

Home | Current Version | Previous Version | Graphics & Text | Print | Product List | Glossary On
Versions: 1 2 3 4 5 6 7 8 9 10 11 12 13 14 15 16 17 18 19 20 21 22 23 24 25 26 27 28 29 30 31 32 33 34 35 36 37 38 39 40 41 42 43 44 45 46 47 48 49 50
000
ASUS43 KGLD 060008
RWRGLD

GOODLAND FORECAST AREA HOURLY WEATHER ROUNDUP
NATIONAL WEATHER SERVICE GOODLAND KS
600 PM MDT TUE MAY 05 2015

...OFFICIAL OBSERVATIONS...

CITY           SKY/WX    TMP DP  RH WIND       PRES   REMARKS
GOODLAND KS    LGT RAIN  56  55  97 SE18G33   29.79F
HILL CITY KS   LGT RAIN  60  56  86 SE12G22   29.86F FOG
IMPERIAL NEB   LGT RAIN  57  53  86 SE23G35   29.84F
MCCOOK NEB     CLOUDY    62  52  69 SE24G33   29.86S
AKRON CO       RAIN      53  53 100 E15G24    29.78F VSB 1
BURLINGTON CO  CLOUDY    56  54  93 SE23G31   29.76F
LIMON CO       RAIN      51  49  92 NW18      29.74F FOG
$$

...UNOFFICIAL OBSERVATIONS...

CITY           SKY/WX    TMP DP  RH WIND       PRES   REMARKS
GOVE KS          N/A     59  32  36 MISG        N/A
LENORA KS        N/A     59  32  36 MISG        N/A
SHARON SPRINGS   N/A     57  56  96 MISG        N/A
KIT CARSON CO    N/A     57  54  90 MISG        N/A
YUMA CO          N/A     60  60 100 E17         N/A
$$



USA.gov is the U.S. government's official web portal to all federal, state and local government web resources and services.